TimeMST,TemperatureF,Dew PointF,Humidity,Sea Level PressureIn,VisibilityMPH,Wind Direction,Wind SpeedMPH,Gust SpeedMPH,PrecipitationIn,Events,Conditions,WindDirDegrees,DateUTC
12:15 AM,53.6,53.6,100,30.14,10.0,SSE,3.5,-,N/A,,Overcast,150,2013-09-10 07:15:00
12:35 AM,53.6,53.6,100,30.15,10.0,SSE,3.5,-,N/A,,Overcast,160,2013-09-10 07:35:00
12:55 AM,53.6,53.6,100,30.15,10.0,Calm,Calm,-,N/A,,Overcast,0,2013-09-10 07:55:00
1:15 AM,53.6,53.6,100,30.15,10.0,Calm,Calm,-,N/A,,Overcast,0,2013-09-10 08:15:00
1:35 AM,53.6,53.6,100,30.16,10.0,SSE,3.5,-,N/A,,Overcast,150,2013-09-10 08:35:00
1:55 AM,53.6,53.6,100,30.15,10.0,Calm,Calm,-,N/A,,Overcast,0,2013-09-10 08:55:00
2:15 AM,53.6,53.6,100,30.14,10.0,Calm,Calm,-,N/A,,Overcast,0,2013-09-10 09:15:00
2:35 AM,53.6,51.8,94,30.14,10.0,Calm,Calm,-,N/A,,Overcast,0,2013-09-10 09:35:00
2:55 AM,53.6,51.8,94,30.13,10.0,Calm,Calm,-,N/A,,Overcast,0,2013-09-10 09:55:00
3:15 AM,53.6,51.8,94,30.13,10.0,SE,3.5,-,N/A,,Overcast,140,2013-09-10 10:15:00
3:35 AM,53.6,51.8,94,30.13,10.0,Calm,Calm,-,N/A,,Scattered Clouds,0,2013-09-10 10:35:00
3:55 AM,53.6,50.0,88,30.13,10.0,Calm,Calm,-,N/A,,Partly Cloudy,0,2013-09-10 10:55:00
4:15 AM,51.8,50.0,94,30.14,10.0,Calm,Calm,-,N/A,,Mostly Cloudy,0,2013-09-10 11:15:00
4:35 AM,51.8,51.8,100,30.14,10.0,Calm,Calm,-,N/A,,Scattered Clouds,0,2013-09-10 11:35:00
4:55 AM,50.0,50.0,100,30.14,10.0,Calm,Calm,-,N/A,,Clear,0,2013-09-10 11:55:00
5:15 AM,51.8,50.0,94,30.14,10.0,SE,5.8,-,N/A,,Partly Cloudy,130,2013-09-10 12:15:00
5:35 AM,51.8,50.0,94,30.14,10.0,SE,5.8,-,N/A,,Partly Cloudy,140,2013-09-10 12:35:00
5:55 AM,51.8,50.0,94,30.14,10.0,SE,6.9,-,N/A,,Partly Cloudy,130,2013-09-10 12:55:00
6:15 AM,51.8,50.0,94,30.15,10.0,SSE,3.5,-,N/A,,Mostly Cloudy,160,2013-09-10 13:15:00
6:35 AM,50.0,50.0,100,30.16,10.0,SSE,4.6,-,N/A,,Partly Cloudy,150,2013-09-10 13:35:00
6:55 AM,51.8,50.0,94,30.16,10.0,Calm,Calm,-,N/A,,Scattered Clouds,0,2013-09-10 13:55:00
7:15 AM,53.6,50.0,88,30.16,10.0,NE,3.5,-,N/A,,Mostly Cloudy,50,2013-09-10 14:15:00
7:35 AM,53.6,51.8,94,30.17,10.0,ESE,6.9,-,N/A,,Mostly Cloudy,120,2013-09-10 14:35:00
7:55 AM,53.6,51.8,94,30.17,10.0,East,4.6,-,N/A,,Scattered Clouds,90,2013-09-10 14:55:00
8:15 AM,57.2,53.6,88,30.18,10.0,SE,8.1,-,N/A,,Scattered Clouds,140,2013-09-10 15:15:00
8:35 AM,59.0,51.8,77,30.18,10.0,SE,9.2,-,N/A,,Mostly Cloudy,140,2013-09-10 15:35:00
8:55 AM,59.0,51.8,77,30.18,10.0,South,10.4,-,N/A,,Partly Cloudy,180,2013-09-10 15:55:00
9:15 AM,59.0,50.0,72,30.18,10.0,SSE,9.2,-,N/A,,Clear,160,2013-09-10 16:15:00
9:35 AM,59.0,50.0,72,30.19,10.0,SE,5.8,-,N/A,,Partly Cloudy,130,2013-09-10 16:35:00
9:55 AM,60.8,50.0,68,30.19,10.0,SE,8.1,-,N/A,,Mostly Cloudy,140,2013-09-10 16:55:00
10:15 AM,62.6,50.0,63,30.19,10.0,SSE,4.6,-,N/A,,Mostly Cloudy,160,2013-09-10 17:15:00
10:35 AM,60.8,50.0,68,30.19,10.0,SSE,3.5,-,N/A,,Overcast,160,2013-09-10 17:35:00
10:55 AM,62.6,51.8,68,30.18,10.0,South,4.6,-,N/A,,Overcast,190,2013-09-10 17:55:00
11:15 AM,62.6,51.8,68,30.18,10.0,SSE,6.9,-,N/A,,Mostly Cloudy,150,2013-09-10 18:15:00
11:35 AM,60.8,51.8,72,30.18,10.0,SE,8.1,-,N/A,,Overcast,140,2013-09-10 18:35:00
11:55 AM,59.0,53.6,82,30.18,7.0,South,5.8,-,N/A,,Mostly Cloudy,170,2013-09-10 18:55:00
12:15 PM,59.0,53.6,82,30.18,10.0,South,5.8,-,N/A,,Overcast,190,2013-09-10 19:15:00
12:35 PM,62.6,53.6,72,30.17,10.0,SSE,5.8,-,N/A,,Mostly Cloudy,160,2013-09-10 19:35:00
12:55 PM,60.8,51.8,72,30.18,10.0,SE,13.8,-,N/A,,Overcast,140,2013-09-10 19:55:00
1:15 PM,64.4,51.8,64,30.17,10.0,South,12.7,-,N/A,,Scattered Clouds,170,2013-09-10 20:15:00
1:35 PM,62.6,50.0,63,30.17,10.0,SSW,11.5,16.1,N/A,,Scattered Clouds,200,2013-09-10 20:35:00
1:55 PM,64.4,51.8,64,30.17,10.0,SSE,12.7,-,N/A,,Mostly Cloudy,160,2013-09-10 20:55:00
2:15 PM,64.4,51.8,64,30.16,10.0,SSE,13.8,-,N/A,,Mostly Cloudy,160,2013-09-10 21:15:00
2:35 PM,64.4,50.0,59,30.16,10.0,South,10.4,18.4,N/A,,Mostly Cloudy,170,2013-09-10 21:35:00
2:55 PM,64.4,50.0,59,30.16,10.0,South,11.5,-,N/A,,Mostly Cloudy,180,2013-09-10 21:55:00
3:15 PM,64.4,50.0,59,30.15,10.0,South,9.2,-,N/A,,Mostly Cloudy,180,2013-09-10 22:15:00
3:35 PM,62.6,50.0,63,30.16,10.0,SSW,10.4,-,N/A,,Mostly Cloudy,210,2013-09-10 22:35:00
3:55 PM,57.2,53.6,88,30.17,2.5,SW,11.5,18.4,0.01,,Overcast,230,2013-09-10 22:55:00
4:15 PM,57.2,53.6,88,30.17,8.0,WSW,5.8,-,N/A,,Overcast,240,2013-09-10 23:15:00
4:35 PM,57.2,55.4,94,30.17,10.0,WSW,5.8,-,N/A,,Scattered Clouds,240,2013-09-10 23:35:00
4:55 PM,55.4,53.6,94,30.17,10.0,SW,3.5,-,0.01,,Mostly Cloudy,220,2013-09-10 23:55:00
5:15 PM,55.4,53.6,94,30.18,5.0,SSW,5.8,-,0.01,,Overcast,200,2013-09-11 00:15:00
5:35 PM,55.4,53.6,94,30.18,2.0,South,3.5,-,0.07,,Overcast,180,2013-09-11 00:35:00
5:55 PM,55.4,53.6,94,30.18,4.0,SE,4.6,-,0.09,,Overcast,140,2013-09-11 00:55:00
6:15 PM,55.4,53.6,94,30.18,5.0,Calm,Calm,-,0.02,,Overcast,0,2013-09-11 01:15:00
6:35 PM,55.4,53.6,94,30.18,9.0,Calm,Calm,-,0.02,,Mostly Cloudy,0,2013-09-11 01:35:00
6:55 PM,55.4,53.6,94,30.18,10.0,Calm,Calm,-,0.03,,Mostly Cloudy,0,2013-09-11 01:55:00
7:15 PM,55.4,53.6,94,30.19,10.0,Calm,Calm,-,N/A,,Mostly Cloudy,0,2013-09-11 02:15:00
7:35 PM,55.4,53.6,94,30.19,10.0,Calm,Calm,-,N/A,,Mostly Cloudy,0,2013-09-11 02:35:00
7:55 PM,55.4,53.6,94,30.20,10.0,SE,4.6,-,N/A,,Overcast,130,2013-09-11 02:55:00
8:15 PM,55.4,53.6,94,30.21,10.0,ESE,4.6,-,N/A,,Overcast,110,2013-09-11 03:15:00
8:35 PM,55.4,53.6,94,30.21,10.0,SE,6.9,-,N/A,,Overcast,130,2013-09-11 03:35:00
8:55 PM,55.4,53.6,94,30.22,10.0,SE,5.8,-,N/A,,Overcast,130,2013-09-11 03:55:00
9:15 PM,53.6,53.6,100,30.22,10.0,SE,4.6,-,N/A,,Overcast,130,2013-09-11 04:15:00
9:35 PM,53.6,53.6,100,30.22,10.0,SSE,5.8,-,N/A,,Mostly Cloudy,150,2013-09-11 04:35:00
9:55 PM,53.6,53.6,100,30.22,10.0,SE,5.8,-,N/A,,Overcast,140,2013-09-11 04:55:00
10:15 PM,53.6,51.8,94,30.22,10.0,SSE,6.9,-,N/A,,Mostly Cloudy,150,2013-09-11 05:15:00
10:35 PM,55.4,53.6,94,30.23,10.0,SSE,4.6,-,N/A,,Overcast,150,2013-09-11 05:35:00
10:55 PM,55.4,53.6,94,30.22,10.0,SE,5.8,-,N/A,,Overcast,130,2013-09-11 05:55:00
11:15 PM,55.4,53.6,94,30.23,10.0,SE,4.6,-,N/A,,Overcast,140,2013-09-11 06:15:00
11:35 PM,53.6,53.6,100,30.23,10.0,SSE,4.6,-,N/A,,Mostly Cloudy,150,2013-09-11 06:35:00
11:55 PM,53.6,53.6,100,30.23,10.0,SE,4.6,-,0.01,,Mostly Cloudy,140,2013-09-11 06:55:00